Location: Andrest
(43.3200°N, 0.0641°E)
Time: 23:02:49
(UTC+00:00)

SL-8 Rocket - Pass Details

Date: 26 April 2021
Orbit: 958 x 989 km, 82.9° (Epoch: 14 May)

Event Time Altitude Azimuth Distance (km) Brightness Sun altitude
Rises 00:39:38 0° 351° (N) 3,701 8.0 -32.3°
Reaches altitude 10° 00:42:09 10° 352° (N) 2,752 7.1 -32.2°
Enters shadow 00:47:47 72° 348° (NNW) 1,037 4.1 -32.0°
